EHI
0 0 0 0 0 0 0 0 0 0 0 0 0 0 1 2 2 1 2 2 2 3 4 5 5 5 4 2 1 1 1 3 5 6 6 6 6 6 5 4 2 0 0 1
0 0 0 0 0 0 0 0 0 0 0 0 0 0 1 2 2 1 1 1 1 2 3 4 3 3 2 1 1 1 1 2 4 6 6 4 4 5 5 4 2 1 1 2
0 0 0 0 0 0 0 0 0 0 0 0 0 0 0 1 1 0 0 0 1 3 4 3 2 1 1 0 1 1 0 1 4 5 4 3 3 4 4 3 2 1 2 2
0 0 0 0 0 0 0 0 0 0 0 0 0 0 0 0 0 0 0 0 1 3 4 4 3 2 2 1 0 0 0 1 3 4 3 3 2 2 2 2 1 1 1 1
0 0 0 0 0 0 0 0 0 0 0 0 0 0 1 1 1 0 0 1 2 3 4 4 4 4 3 2 1 1 1 1 2 3 2 2 1 1 1 1 0 0 0 0
0 0 0 0 0 0 0 0 0 0 0 0 0 0 1 2 1 0 1 2 3 3 4 5 6 6 5 3 3 3 2 2 3 3 2 1 1 1 2 1 0 0 0 0
0 0 0 0 0 0 0 0 0 0 0 0 0 0 1 2 1 0 1 3 5 4 4 5 8 9 7 5 5 5 3 3 4 3 1 1 1 2 3 2 1 0 0 0
0 0 0 0 0 0 0 0 0 0 0 0 0 0 1 1 1 1 1 3 5 5 3 4 8 10 10 7 6 5 4 4 5 4 2 0 1 2 2 1 1 1 0 0
0 0 0 0 0 0 0 0 0 0 0 0 0 0 0 1 1 2 3 4 6 5 2 1 5 9 10 8 6 6 6 6 6 5 4 2 1 1 1 1 0 0 0 0
0 0 0 0 0 0 0 0 0 0 0 0 0 0 0 0 1 2 3 4 5 4 1 0 2 5 7 7 6 7 8 8 8 7 5 3 2 2 2 2 1 0 0 0
0 0 0 0 0 0 0 0 0 0 0 0 0 0 0 0 0 1 1 2 2 2 1 0 1 2 5 7 7 7 7 8 9 8 5 4 4 4 3 3 2 1 1 0
0 0 0 0 0 0 0 0 0 0 0 0 0 0 0 0 0 0 0 0 0 1 1 1 1 2 5 8 9 8 7 7 9 8 7 6 6 6 5 3 3 2 2 1
0 0 0 0 0 0 0 0 0 0 0 0 0 0 0 1 1 1 0 0 0 0 1 2 3 4 6 9 9 9 8 9 10 10 9 9 8 7 6 3 2 2 2 2
0 0 0 0 0 0 0 0 0 0 0 0 0 0 0 1 2 1 0 0 0 0 0 2 4 5 6 8 9 9 9 9 10 10 9 9 9 7 5 3 1 1 1 1
0 0 0 0 0 0 0 0 0 0 0 0 0 0 0 1 1 1 0 0 0 0 0 1 3 5 6 8 9 9 9 8 7 7 6 6 6 6 4 3 2 1 0 0
0 0 0 0 0 0 0 0 0 0 0 0 0 0 0 0 1 1 0 0 0 0 0 0 2 4 6 6 8 9 8 6 5 4 4 4 4 4 3 3 2 1 0 0
0 0 0 0 0 0 0 0 0 0 0 0 0 0 0 0 0 0 0 0 0 0 0 0 1 3 4 5 6 8 7 6 5 4 3 3 3 3 3 2 1 0 0 0
0 0 0 0 0 0 0 0 0 0 0 0 0 0 0 0 0 0 0 0 0 0 0 0 1 3 3 3 4 6 6 5 4 3 2 2 2 2 2 1 0 0 0 0
0 0 0 0 0 0 0 0 0 0 0 0 0 0 0 0 0 0 0 0 0 0 0 1 2 3 3 3 3 3 4 3 1 1 1 1 1 1 1 0 0 0 0 0
0 0 0 0 0 0 0 0 0 0 0 0 0 0 0 0 0 0 0 0 0 1 1 2 3 3 2 2 1 1 1 1 0 0 0 0 0 0 0 0 0 0 0 0
0 0 0 0 0 0 0 0 0 0 0 0 0 0 0 0 0 0 0 0 1 2 3 3 2 1 1 1 0 0 0 0 0 0 0 0 0 0 0 0 0 0 0 0
0 0 0 0 0 0 0 0 0 0 0 0 0 0 0 0 0 0 0 0 1 2 2 2 1 0 0 0 0 0 0 0 0 0 0 0 0 0 0 0 0 0 0 0
0 0 0 0 0 0 0 0 0 0 0 0 0 0 0 0 0 0 0 0 0 1 1 1 0 0 0 0 0 0 0 0 0 0 0 0 0 0 0 0 0 0 0 0
0 0 0 0 0 0 0 0 0 0 0 0 0 0 0 0 0 0 0 0 0 0 0 0 0 0 0 0 0 0 0 0 0 0 0 0 0 0 0 0 0 0 0 0
0 0 0 0 0 0 0 0 0 0 0 0 0 0 0 0 0 0 0 0 0 0 0 0 0 0 0 0 0 0 0 0 0 0 0 0 0 0 0 0 0 0 0 0
0 0 0 0 0 0 0 0 0 0 0 0 0 0 0 0 0 0 0 0 0 0 0 0 0 0 0 0 0 0 0 0 0 0 0 0 0 0 0 0 0 0 0 0
Wind_Speed
6 6 5 4 4 5 5 5 4 2 2 3 2 3 4 5 4 4 4 4 4 4 4 4 4 4 3 2 3 3 2 2 2 2 2 1 1 1 1 1 2 2 2 3
5 6 4 3 4 5 6 6 5 1 2 2 2 3 3 5 5 4 5 5 5 5 5 4 4 3 3 3 2 3 3 2 2 2 1 1 1 1 2 1 1 1 1 2
6 2 2 4 5 6 6 6 4 3 2 4 4 4 5 6 5 5 4 5 4 5 6 5 4 4 3 2 2 2 3 3 2 2 1 1 2 1 1 1 1 1 1 1
5 3 3 5 6 6 5 4 5 5 5 4 6 3 4 6 6 6 5 5 4 4 6 6 4 4 3 2 2 1 2 3 2 3 3 2 1 1 1 1 1 1 1 1
4 3 4 5 5 5 5 6 7 8 7 7 7 5 3 6 6 6 6 5 5 5 5 6 5 4 3 3 2 1 2 2 2 2 3 2 1 1 1 2 2 1 1 1
6 5 4 3 4 5 5 7 9 9 6 7 7 5 2 4 6 6 7 6 6 5 5 5 5 4 3 3 2 1 2 2 2 2 2 2 2 2 2 2 2 1 1 1
7 7 5 3 5 5 6 5 4 4 5 4 3 2 1 4 4 4 5 6 6 5 5 5 5 5 4 4 3 2 2 2 2 1 1 2 2 3 3 2 2 2 1 1
6 6 6 5 5 4 6 7 4 4 3 2 2 2 4 6 6 5 4 5 6 5 5 5 5 5 4 4 4 3 2 2 1 1 1 1 2 2 2 1 1 2 2 2
5 3 4 5 5 5 6 6 6 6 8 5 2 4 6 7 6 5 4 4 5 5 5 4 5 5 4 4 4 3 3 2 1 0 0 1 1 1 1 1 1 1 1 1
7 6 4 4 5 7 7 6 4 4 4 4 2 2 4 7 5 5 5 4 5 5 5 4 3 4 4 3 3 3 3 2 2 1 1 1 1 1 1 1 0 0 0 0
8 7 5 6 6 6 7 7 5 4 4 4 3 1 4 6 5 5 5 4 4 5 4 4 4 3 3 3 3 2 2 2 1 1 1 1 1 1 1 1 0 0 0 0
5 6 7 6 5 5 5 6 5 4 4 4 3 0 4 5 5 5 4 4 4 4 4 4 4 3 3 3 3 2 2 1 1 1 1 1 1 1 0 1 1 0 1 0
5 6 6 5 5 5 6 6 6 5 5 5 4 2 4 5 5 5 4 4 4 3 4 4 3 3 3 3 2 2 2 1 1 1 1 1 1 1 1 1 1 0 0 0
3 7 8 7 3 3 5 6 6 6 5 5 4 1 3 3 4 4 4 4 3 3 3 4 3 3 3 3 2 2 2 1 1 1 1 1 1 1 1 1 1 1 1 1
5 7 9 9 7 6 7 7 7 8 7 6 5 3 1 2 3 3 4 4 3 3 3 3 2 2 2 2 2 2 1 1 1 1 0 0 1 1 1 1 1 0 1 1
5 7 9 9 8 7 9 8 8 8 8 7 6 4 1 1 3 3 3 4 3 2 2 2 2 2 2 1 1 2 1 1 1 1 1 1 1 1 1 1 1 1 0 1
5 7 9 7 5 7 9 7 7 6 5 5 6 2 2 3 3 2 2 2 3 3 3 2 2 2 2 1 1 1 1 2 1 1 1 1 1 1 0 1 1 1 0 0
7 8 5 7 7 9 2 1 1 2 2 2 1 2 3 4 3 2 3 4 3 3 2 2 2 2 2 2 1 1 1 2 1 1 1 1 1 1 1 1 1 1 1 0
7 7 6 6 7 7 3 1 1 2 2 1 0 2 3 3 2 1 3 4 3 2 2 2 2 1 1 1 1 1 1 1 1 1 1 1 1 1 1 1 1 1 1 1
7 7 7 6 7 6 0 3 2 1 2 2 1 1 1 1 1 1 3 3 3 3 3 2 2 2 2 2 2 2 1 1 1 1 1 1 1 1 1 1 0 0 0 0
5 7 8 8 8 3 2 2 1 2 1 3 3 2 2 1 1 2 3 3 3 3 2 2 1 1 1 1 2 2 2 2 2 2 1 1 0 1 1 1 1 0 0 0
4 4 5 5 7 3 3 1 2 3 4 5 4 4 3 3 3 3 3 3 2 2 2 1 1 1 1 1 1 2 2 2 2 2 2 1 0 1 0 1 1 1 1 1
3 2 2 3 1 3 4 4 4 4 4 4 4 4 3 2 2 2 2 2 1 1 1 1 0 1 1 1 1 1 1 1 2 1 1 1 1 1 0 0 1 1 1 1
2 2 3 3 1 2 3 4 4 4 4 4 3 3 3 2 2 1 1 1 1 1 1 1 0 1 0 0 1 1 1 1 1 1 1 1 1 1 1 1 0 0 1 1
4 4 5 5 2 2 2 3 4 4 4 4 4 3 3 2 2 2 1 0 0 1 1 1 1 1 0 1 1 1 1 1 2 1 1 1 1 1 1 1 1 1 1 2
4 4 4 3 2 3 2 3 3 3 3 2 2 2 2 2 1 2 1 1 1 1 1 1 1 1 2 2 2 1 1 1 1 2 2 1 1 0 1 1 1 2 1 1
Wind_Direction
222 234 239 241 240 262 286 276 269 239 150 159 196 198 175 166 165 156 155 149 147 144 141 126 122 124 122 117 105 102 113 98 92 93 102 99 84 91 85 64 53 31 22 50
233 235 252 264 265 263 268 268 272 238 155 187 204 230 198 168 171 167 162 158 159 152 142 136 131 134 143 140 128 134 114 110 98 80 95 120 116 114 106 86 64 56 42 40
235 235 235 256 255 261 263 271 283 288 269 233 226 240 219 174 168 162 167 164 164 158 149 151 149 151 145 129 117 110 121 118 122 124 91 72 73 77 90 101 91 49 71 67
248 239 248 256 263 271 272 289 289 282 267 253 234 248 222 185 171 175 176 169 168 157 154 154 151 151 152 140 127 141 134 126 125 123 116 121 122 132 140 135 140 137 101 97
243 236 251 261 275 280 280 291 281 272 269 269 252 252 216 172 171 178 172 167 166 164 163 152 150 155 160 144 140 156 118 109 116 131 134 153 138 135 124 126 143 150 132 135
240 230 236 260 270 268 274 271 262 251 254 260 250 240 208 167 172 165 162 167 164 157 155 148 146 155 156 138 136 132 127 119 123 121 139 155 148 146 144 157 160 156 140 154
232 221 192 223 251 240 246 265 266 239 218 234 213 206 139 116 116 120 141 152 153 154 149 149 153 154 149 148 149 154 147 139 124 139 153 149 164 165 165 175 174 159 170 186
247 220 184 199 235 254 251 249 261 285 285 286 215 176 119 107 97 102 115 132 148 152 150 158 161 154 155 152 150 156 154 150 140 151 173 160 142 146 138 169 178 176 186 193
286 261 168 192 226 249 262 259 274 288 288 280 230 141 131 127 130 133 135 131 141 148 154 162 159 149 150 153 157 162 159 154 145 170 179 158 133 121 148 176 171 148 181 181
289 285 217 189 216 223 250 279 280 271 292 287 267 197 153 153 154 151 145 140 141 142 149 154 147 149 153 151 156 156 163 171 167 170 177 166 155 156 166 148 127 144 212 151
279 270 240 205 217 232 225 233 252 261 262 281 292 12 89 126 124 129 132 136 143 143 146 155 146 145 148 145 145 145 157 163 175 191 185 182 185 182 157 122 179 202 213 208
276 278 260 229 213 226 250 253 255 265 278 278 276 59 90 110 115 114 110 115 122 129 139 145 141 142 143 148 155 159 167 188 198 195 179 178 167 142 142 159 163 189 214 197
311 275 265 225 203 202 226 242 253 261 267 273 266 152 119 111 112 112 112 108 109 116 117 113 123 138 145 152 160 172 174 180 195 187 159 144 168 192 219 216 171 193 246 211
296 269 270 274 286 262 245 249 252 259 260 265 264 202 152 126 123 114 112 111 107 114 107 103 109 122 125 135 139 157 172 165 159 153 159 161 181 201 248 254 218 213 226 210
257 271 274 281 286 280 272 261 258 255 262 267 281 283 178 124 120 120 112 106 102 96 97 99 106 113 112 120 132 135 130 123 126 119 125 153 173 185 276 283 278 254 247 234
257 273 281 276 270 268 266 255 247 247 253 260 272 280 30 86 85 88 92 95 93 92 80 73 78 95 118 119 117 125 138 130 111 94 70 67 63 70 335 314 318 334 281 257
268 274 283 278 269 272 260 248 242 245 248 265 270 281 61 74 74 72 74 95 94 90 74 66 65 61 51 87 112 118 125 114 118 109 78 64 58 67 348 323 337 324 289 236
265 275 275 275 276 260 258 59 207 243 274 296 322 47 75 69 66 65 74 87 76 73 69 66 64 58 39 28 34 117 90 95 97 86 74 66 68 65 26 21 18 350 13 56
248 257 262 263 267 268 238 203 218 236 264 330 2 88 79 67 50 73 74 78 78 73 63 58 64 56 33 38 39 65 121 117 99 81 65 61 64 63 66 68 38 345 12 11
237 245 253 259 263 262 62 82 63 328 247 52 48 86 98 65 292 345 46 64 64 62 55 54 56 41 38 41 45 45 52 83 83 77 67 71 79 99 125 151 166 279 173 238
224 232 237 251 258 264 50 59 88 240 38 61 42 43 37 344 14 61 50 54 64 64 48 30 31 39 37 32 36 35 31 29 38 43 45 64 107 164 167 160 178 193 153 107
252 249 245 252 253 243 52 41 34 33 43 47 42 43 54 52 49 59 58 51 51 55 45 31 40 41 35 38 47 24 27 25 27 38 32 9 340 283 188 155 205 200 178 184
247 269 297 297 323 40 43 39 38 33 37 38 36 33 43 40 43 45 47 47 42 55 48 28 122 110 45 20 30 36 37 44 30 15 345 330 339 327 355 205 214 208 205 195
290 307 282 284 283 15 34 33 31 29 28 32 35 29 23 20 22 23 8 36 55 17 15 5 322 179 189 5 12 56 67 50 5 324 307 297 333 343 334 322 270 217 240 230
311 303 281 272 287 334 13 28 20 14 13 16 23 20 10 1 356 346 328 345 91 29 22 13 349 311 8 41 33 52 55 11 340 326 324 323 331 310 305 324 294 253 229 210
271 278 273 284 320 310 321 352 348 342 339 347 352 349 359 357 348 339 341 5 49 65 35 19 358 2 14 28 21 27 40 9 334 325 327 320 316 311 309 319 335 334 287 267